Погода в Павлово

Россия / Смоленская область     55°21′22″N   34°02′01″E
темп.,
°C
ветер,
м/с
пор.,
м/с
влажн.,
%
обл.,
%
осадки,
мм/ч
давл.,
гПа
погр.,
м
8 марта, пн
пн800:00−7з4129179 0.1 998668
03:00−7з5129389 0.1 998813
06:00−7зсз51291100 0.3 999922
09:00−9сз4108891 0.3 1001653
12:00−7сз468582 0.0 1004729
15:00−5сз357891 0.1 10061024
18:00−7сз3791100 0.2 1008432
21:00−9ссз399496 0.4 1011383
9 марта, вт
вт900:00−11ссз389596 0.1 1013301
03:00−14ссз259794 0.1 1015119
06:00−16ссз239880 0.0 101676
09:00−15ссз369480 0.1 1018239
12:00−11ссз358377 0.0 1019653
15:00−9ссз358089 0.1 10201005
18:00−11ссз2590100 0.1 1020210
21:00−15ссз1293100 0.1 102320
10 марта, ср
ср1000:00−17св129352 0.0 102520
03:00−18св229576 0.0 102641
06:00−19всв2597100 0.0 1026145
09:00−20всв359496 0.0 1028205
12:00−16всв35830 0.0 1029338
15:00−14всв34760 0.0 1030451
18:00−16св22870 0.0 103031
21:00−20всв12850 0.0 103220
11 марта, чт
чт1100:00−21в118414 0.0 103320
03:00−21ю11808 0.0 103420
06:00−21ю11828 0.0 103420
09:00−18ююз128428 0.0 103494
12:00−11ю246622 0.0 1032419
15:00−9ю356811 0.0 1031732
18:00−11ю36820 0.0 1029171
21:00−15ююв39900 0.0 1029203
12 марта, пт
пт1200:00−16ю411880 0.0 1028294
03:00−17ююв4128638 0.0 1026292
06:00−15ююв51393100 0.0 1023381
09:00−11ююв71585100 0.0 1019561
12:00−7ююв81691100 0.3 1016800
15:00−5ю81691100 2.0 10121223
18:00−3ю71593100 1.5 10091164
21:00−2ююз61396100 3.7 1008884